Content
SEND FEEDBACK

Daily
Averages
Monthly
Summary
Canada

SUDBURY, ONTARIO


Home > North America > Canada > Ontario
Elevation: 1140 feet     Latitude: 46 37N     Longitude: 080 48W

WEATHER
 
SELECT A DAY
Number of Records: 184,204;   Date Range: 1/1/95 - 9/15/14
 
SHARE

PRINT THIS DATA

[ ← Previous Day ]
WEATHER ALMANAC - MARCH 25, 2013
[ Next Day → ]
[ °C ]   °F
Weather ElementAverageHighLow
Temperature31.9 °F37.4 °F (2:00 pm)26.6 °F (1:00 am)
Dewpoint25.3 °F28.4 °F (4:00 pm)22 °F (2:00 am)
Humidity76.2 %93 % (10:00 am)50 % (2:00 pm)
Barometer29.87 in29.93 in (12:35 am)29.83 in (2:00 pm)
Wind Speed13.9 mph21.9 mph (4:00 pm)
Wind Gust20.7 mph (6:00 pm)
Weather ElementAverage
Visibility17.7 mi
Wind DirectionENE (79 °)

Weather ElementTotal
Precipitation---
Heating Degree Days33 (Base 65)
Averaged from 31 records on March 25, 2013
WEATHER CONDITIONS BREAKOUT
WIND DIRECTION BREAKOUT
WEATHER BY HOUR - MARCH 25, 2013
[ °C ]   °F
Local TimeTemperatureDewpointHumidityBarometerVisibilityWind DirectionWind SpeedGust SpeedPrecipitationEventsConditions
12:35 AM28.4 °F23.0 °F80 %29.93 in15.0 miNNE (20°)11.5 mph18.4 mphOvercast
1:00 AM26.6 °F23.0 °F86 %29.92 in15.0 miNNE (30°)11.5 mphOvercast
2:00 AM27.0 °F22.0 °F75 %29.90 in15.0 miNNE (30°)13.8 mphPartly Cloudy
2:00 AM26.6 °F23.0 °F86 %29.90 in15.0 miNNE (30°)15.0 mphOvercast
3:00 AM26.6 °F23.0 °F86 %29.89 in15.0 miNNE (30°)15.0 mphOvercast
4:00 AM28.4 °F23.0 °F80 %29.88 in15.0 miNNE (20°)13.8 mph19.6 mphOvercast
5:00 AM28.4 °F24.8 °F86 %29.87 in15.0 miNNE (30°)13.8 mphOvercast
6:00 AM28.4 °F24.8 °F86 %29.87 in15.0 miNNE (20°)13.8 mphOvercast
7:00 AM28.4 °F24.8 °F86 %29.87 in20.0 miNNE (30°)13.8 mphMostly Cloudy
7:32 AM28.4 °F24.8 °F86 %29.88 in20.0 miNNE (20°)13.8 mph19.6 mphSnowLow Drifting Snow
8:00 AM28.0 °F25.0 °F84 %29.88 in19.0 miNNE (20°)15.0 mphSnowLow Drifting Snow
8:00 AM28.4 °F24.8 °F86 %29.88 in20.0 miNNE (20°)13.8 mph19.6 mphSnowLow Drifting Snow
9:00 AM28.4 °F24.8 °F86 %29.88 in20.0 miNNE (30°)13.8 mph19.6 mphSnowLow Drifting Snow
10:00 AM28.4 °F26.6 °F93 %29.87 in20.0 miNNE (30°)17.3 mphOvercast
10:33 AM30.2 °F26.6 °F86 %29.86 in20.0 miNNE (20°)18.4 mphSnowLight Snow
11:00 AM32.0 °F26.6 °F80 %29.86 in20.0 miNNE (30°)18.4 mphMostly Cloudy
11:53 AM33.8 °F26.6 °F75 %29.86 in20.0 miNNE (20°)16.1 mphSnowLight Snow
12:00 PM33.8 °F26.6 °F75 %29.86 in20.0 miNNE (20°)16.1 mphSnowLight Snow
1:00 PM35.6 °F24.8 °F65 %29.85 in20.0 miNNE (30°)15.0 mphMostly Cloudy
2:00 PM37.0 °F25.0 °F50 %29.83 in15.0 miNE (40°)13.8 mphSnowLight Snow
2:00 PM37.4 °F24.8 °F60 %29.83 in15.0 miNNE (30°)12.7 mphSnowLight Snow
3:00 PM37.4 °F26.6 °F65 %29.83 in15.0 miNNE (30°)12.7 mphSnowLight Snow
4:00 PM35.6 °F28.4 °F75 %29.83 in20.0 miNE (40°)21.9 mphSnowLight Snow Showers
5:00 PM37.4 °F26.6 °F65 %29.83 in20.0 miNNE (20°)9.2 mphOvercast
6:00 PM37.4 °F26.6 °F65 %29.84 in20.0 miNNE (20°)15.0 mph20.7 mphMostly Cloudy
7:00 PM35.6 °F28.4 °F75 %29.86 in20.0 miNorth (360°)10.4 mphMostly Cloudy
8:00 PM36.0 °F27.0 °F59 %29.88 in19.0 miNorth10.4 mphPartly Cloudy
8:00 PM35.6 °F26.6 °F70 %29.88 in20.0 miNorth (360°)9.2 mphOvercast
9:00 PM33.8 °F26.6 °F75 %29.89 in15.0 miNorth (350°)10.4 mphOvercast
10:00 PM35.6 °F24.8 °F65 %29.90 in15.0 miNorth (360°)11.5 mph17.3 mphOvercast
11:00 PM33.8 °F24.8 °F70 %29.90 in15.0 miNorth (360°)13.8 mphOvercast
Hourly data recorded from CYSB, located miles away from Sudbury, Ontario







STORIES FROM OUR PARTNERS